This demonstration page uses our WeatherBlox Daily Observations layout. Learn more.

Left ArrowRight Arrow

39.08367, -84.50855

Hourly Observations for May 31, 2017

Temp ( °F °C ) Dew Point ( °F °C ) Humidity (%) Winds ( mph kmh ) Pressure ( in mb ) Visibility ( mi km ) Precip ( " mm )
12:53 am 00:53 Clear 57 13.9 53 11.7 87 87 N N/A 30.04 1017 10 16.0934 N/A
1:53 am 01:53 Clear 55 12.8 53 11.7 93 93 N N/A 30.03 1017 10 16.0934 N/A
2:53 am 02:53 Cloudy 55 12.8 54 12.2 96 96 N N/A 30.02 1017 10 16.0934 N/A
3:53 am 03:53 Mostly Cloudy 54 12.2 54 12.2 100 100 N N/A 30.02 1017 10 16.0934 N/A
4:53 am 04:53 Cloudy 57 13.9 56 13.3 96 96 SSE 7 11 30.05 1018 10 16.0934 0.02 0.508
5:53 am 05:53 Cloudy with Light Rain 59 15 55 12.8 87 87 SSW 5 7 30.06 1018 10 16.0934 N/A
6:53 am 06:53 Mostly Cloudy 56 13.3 55 12.8 97 97 SSW 3 6 30.05 1018 10 16.0934 N/A
7:53 am 07:53 Cloudy with Light Rain 59 15 57 13.9 93 93 N N/A 30.06 1018 10 16.0934 0.02 0.508
8:53 am 08:53 Mostly Cloudy with Light Rain 60 15.6 59 15 96 96 SW 5 7 30.04 1017 10 16.0934 0.06 1.524
9:53 am 09:53 Partly Cloudy 65 18.3 60 15.6 84 84 S 5 7 30.04 1017 10 16.0934 N/A
10:53 am 10:53 Mostly Cloudy 70 21.1 59 15 68 68 S 7 11 30.03 1017 10 16.0934 N/A
11:53 am 11:53 Sunny 74 23.3 62 16.7 67 67 SSW 12 19 30.03 1017 10 16.0934 N/A
12:41 pm 12:41 Mostly Sunny 76 24.4 63 17.2 64 64 SSW 10 17 30 1016 10 16.0934 N/A
12:53 pm 12:53 Mostly Sunny 76 24.4 61 16.1 60 60 SSW 13 20 30.02 1017 10 16.0934 N/A
1:53 pm 13:53 Partly Cloudy 79 26.1 59 15 50 50 W 14 22 30.01 1016 10 16.0934 N/A
2:53 pm 14:53 Partly Cloudy 80 26.7 56 13.3 44 44 W 18 30 29.99 1016 10 16.0934 N/A
3:53 pm 15:53 Partly Cloudy 81 27.2 51 10.6 35 35 W 15 24 29.98 1015 10 16.0934 N/A
4:53 pm 16:53 Partly Cloudy 79 26.1 50 10 36 36 W 12 19 29.97 1015 10 16.0934 N/A
5:53 pm 17:53 Sunny 79 26.1 53 11.7 41 41 W 10 17 29.96 1015 10 16.0934 N/A
6:53 pm 18:53 Partly Cloudy 78 25.6 51 10.6 39 39 WNW 12 19 29.96 1014 10 16.0934 N/A
7:53 pm 19:53 Mostly Cloudy 76 24.4 54 12.2 47 47 W 12 19 29.97 1015 10 16.0934 N/A
8:53 pm 20:53 Partly Cloudy 75 23.9 53 11.7 46 46 NW 6 9 29.98 1015 10 16.0934 N/A
9:53 pm 21:53 Partly Cloudy 73 22.8 49 9.4 43 43 VRB 5 7 30 1016 10 16.0934 N/A
10:53 pm 22:53 Clear 70 21.1 48 8.9 46 46 W 3 6 30.01 1016 10 16.0934 N/A
11:53 pm 23:53 Mostly Clear 63 17.2 53 11.7 70 70 N N/A 30.02 1017 10 16.0934 N/A

Powered by AerisWeather